CubeSX-Sirius-HSE
1 47951U 21022V 25093.87286098 .00169689 00000-0 16723-2 0 9990
2 47951 97.4240 3.2304 0009345 145.9940 214.1920 15.65362576223315
CubeSX-HSE
1 47952U 21022W 25093.83567359 .00169807 00000-0 16371-2 0 9990
2 47952 97.4240 3.4135 0009543 141.8186 218.3752 15.65912882223328
GRBAlpha
1 47959U 21022AD 25093.86863455 .00162446 00000-0 15889-2 0 9991
2 47959 97.4234 3.5824 0009246 145.5698 214.6163 15.65576225222155
Orbicraft-Zorkiy
1 47960U 21022AE 25093.41959198 .00871987 34101-3 21705-2 0 9997
2 47960 97.4139 7.4186 0010023 142.4405 217.7573 15.95794455223028
TUBIN
1 48900U 21059X 25093.83480931 .00062895 00000-0 98750-3 0 9995
2 48900 97.6718 257.9917 0003919 138.3782 221.7769 15.53449055209652
LEDSAT
1 49069U 21073D 25093.75246973 .00077912 00000-0 13242-2 0 9993
2 49069 97.3934 172.9526 0010328 316.5712 43.4725 15.51120231201049
CUTE
1 49263U 21088D 25092.44215528 .00025981 00000-0 57224-3 0 9990
2 49263 97.4531 166.8522 0010124 129.9099 230.3040 15.43874998193904
TeikyoSat 4
1 49396U 21102B 25093.57550603 .00004413 00000-0 29635-3 0 9997
2 49396 97.4190 134.4085 0012718 11.8233 348.3291 15.07234480186453
Z-Sat
1 49399U 21102E 25093.86875720 .00008941 00000-0 49934-3 0 9996
2 49399 97.3886 137.3913 0017480 340.1373 19.9176 15.13615632186882
KOSEN 1
1 49402U 21102H 25093.70911278 .00012193 00000-0 58324-3 0 9990
2 49402 97.3793 140.1666 0014735 316.6697 43.3378 15.19033200187133
HO-113
1 50466U 21131B 25093.88271526 .00001323 00000-0 42790-3 0 9991
2 50466 98.5086 183.5759 0003615 352.5714 7.5420 14.40689948171841
IRIS-A
1 51044U 22002BN 25093.73005675 .00179517 00000-0 14179-2 0 9996
2 51044 97.3305 170.5845 0000967 132.4013 227.7332 15.70838179179304
Foresail-1
1 52766U 22057AL 25093.34743912 .00168922 00000-0 14614-2 0 9990
2 52766 97.6030 238.3756 0005099 196.9058 163.2034 15.68642462159275
SNUGLITE 2
1 52899U 22065F 25093.81150230 .00003084 00000-0 61135-3 0 9991
2 52899 98.1575 236.4834 0006749 329.5433 30.5376 14.62951965146727
IO-117
1 53106U 22080B 25051.21822557 -.00000003 00000-0 00000+0 0 9995
2 53106 70.1434 106.3440 0008542 48.0089 312.1297 6.42557744 61200
UmKA 1 (RS40S)
1 57172U 23091G 25093.89356437 .00012101 00000-0 66300-3 0 9994
2 57172 97.5659 149.6421 0014601 199.0210 161.0478 15.14264811 97383
CubeBel-2 (EU11S)
1 57175U 23091K 25093.88595775 .00016518 00000-0 82350-3 0 9995
2 57175 97.5658 150.4080 0012464 207.0644 152.9941 15.17551066 97436
VERONIKA
1 58261U 23174F 25093.83107941 .00112702 00000-0 17382-2 0 9997
2 58261 97.4175 176.8497 0006796 268.3267 91.7208 15.53735879 78264
KAFASAT
1 58317U 23174BP 25091.62106398 .07821529 24928-5 14590-2 0 9998
2 58317 97.3838 180.0067 0013270 269.4347 90.5427 16.31943736 78302
ENSO
1 58470U 23185J 25093.84422928 .00065023 00000-0 12473-2 0 9996
2 58470 97.3789 167.1916 0006472 314.3186 45.7533 15.47752254 74689
EIRSAT-1
1 58472U 23185L 25093.84081630 .00095056 00000-0 14614-2 0 9997
2 58472 97.3764 168.2196 0005478 308.6855 51.3908 15.53897609 74758
SONATE-2
1 59112U 24043Q 25093.32710427 .00034333 00000-0 10821-2 0 9996
2 59112 97.5031 223.3320 0010921 355.7543 4.3605 15.32761004 60020
MO-122
1 60209U 24125G 25093.09345267 .00030838 00000-0 95992-3 0 9995
2 60209 97.2884 305.5637 0020306 23.5285 336.6882 15.33032994 41608
GRBBeta
1 60237U 24128C 25093.17680185 .00009123 00000-0 69558-3 0 9991
2 60237 61.9932 314.4422 0045562 43.0620 317.4021 15.01811165 40075
Curium One
1 60242U 24128H 25092.98087585 .00014730 00000-0 10577-2 0 9996
2 60242 61.9832 314.3129 0045341 38.6196 321.8123 15.03713429 40063
ROBUSTA-3A
1 60243U 24128J 25093.82882418 .00012882 00000-0 93736-3 0 9994
2 60243 61.9899 311.9678 0043786 36.5080 323.8982 15.03359865 40187
CatSat
1 60246U 24125J 25093.57151183 .00015814 00000-0 55361-3 0 9994
2 60246 97.2670 305.9574 0043083 334.7102 25.2028 15.28679490 39745
HYPERVIEW-1G (RS66S)
1 61772U 24199AP 25093.87800434 .00033684 00000-0 10850-2 0 9991
2 61772 97.3641 322.9851 0016288 74.7848 285.5194 15.31994486 66734
AO-123
1 61781U 24199AY 25093.84147565 .00013652 00000-0 51331-3 0 9990
2 61781 97.3650 322.4429 0017951 76.2872 284.0364 15.27116735 66698
ZIMSAT 2
1 61783U 24199BA 25093.91341572 .00051635 00000-0 15114-2 0 9995
2 61783 97.3632 323.2327 0016897 73.4920 286.8179 15.34928152 69900
POEM 4 (BGS ARPIT)
1 62461U 24253C 25093.30048443 .04554513 11918-4 60834-3 0 9995
2 62461 55.2026 164.0888 0005190 323.3201 158.4302 16.34720740 14850
HADES-R (SO-124)
1 62690U 25009CK 25093.48675427 .00064325 00000-0 27012-2 0 9995
2 62690 97.4124 174.8129 0001774 293.5056 66.5994 15.23199775 11913
HYDRA-T
1 62692U 25009CM 25093.74385989 .00057462 00000-0 24024-2 0 9991
2 62692 97.4125 175.0794 0001866 283.9872 76.1157 15.23384934 11953
JINJUSat 1B
1 63210U 25052A 25093.56834000 .00022500 00000-0 10898-2 0 9998
2 63210 97.4492 348.6016 0004380 166.5584 193.5767 15.18551002 3073
NUSHSAT 1
1 63211U 25052B 25093.56894351 .00024628 00000-0 11922-2 0 9996
2 63211 97.4484 348.5988 0004159 171.3929 188.7377 15.18552347 3079
DRAGON Fram2
1 63427U 25066A 25093.57246557 .00006375 00000-0 13198-3 0 9997
2 63427 90.0039 318.4995 0004436 76.1638 284.0115 15.45619198 383
Fram2Ham
1 90000U 25090A 25091.75964138 .00004870 00000-0 10103-3 0 139
2 90000 90.0002 318.5006 0004092 76.8776 283.3148 15.45677464 122
